STARLINK-31814, 59802

Orbit data source: Space-Track

STARLINK-31814, 59802 is a payload satellite owned by SpaceX/Seattle (US) in LEO that was launched on Sat, 18 May 2024 UTC via an FALCON 9 launch vehicle from the Air Force Eastern Test Range (AFETR). Payload-class satellites include a variety of spacecraft equipped with specific instruments for various scientific and technological missions. These include communications satellites like Starlink; space stations such as the ISS; scientific satellites like the Hubble; Earth observation satellites from companies like Planet Labs, Umbra, and HawkEye 360; GPS; miniature CubeSats for education and research; and military/defense satellites.

Loading next visibility...
Identifier
59802, 2024-093W
Orbit
LEO
Country
Flag of USUS
Related business
Manufacturer
SpaceX/Seattle
Mission
Operational Commercial Communications
Bus & Motor
STARLINK V2M, Unknown motor
Mass
730 kg wet, ~700 kg dry
Launch date (UTC)
2024-05-18 (2 years ago)
Launch vehicle
FALCON 9
Launch site
Air Force Eastern Test Range (AFETR)
Object type
Payload
Rocket body
Debris
Shape & HBR
Box + 2 Pan, 17.7 m
Radar Cross Section
33.884 m², Large (>1 m²)

Expand to show TLE details & history
Last TLE update: 9 hours ago

TLE from 9 hours ago
0 STARLINK-31814
1 59802U 24093W   26073.61452856  .00000932  00000-0  43389-4 0  9992
2 59802  43.0022 181.4962 0001165 284.4531  75.6191 15.27577091103443
Epoch: 2026-03-14T14:44Z
TLE epoch observation values (Epoch: 2026-03-14T14:44:55.267Z)
Latitude
-0.00005°
Longitude
148.03269°
Altitude
482.635 km
Speed
7.626 km/s
True Right ascension
12h 05m 59s
True Declination
0° 00' 00"
Sunlit
Object was in full shadow at epoch
Visualization orbit readout
Latitude
Unknown
Longitude
Unknown
Altitude
Unknown
Speed
Unknown
Apparent Right ascension
Unknown
Apparent Declination
Unknown
Sunlit
N/A
Visualization observer readout
Local Sidereal Time
03:51:24
Azimuth
Unknown
Elevation
Unknown
Doppler factor
Unknown
Orbital elements
Apogee altitude
485.802 km
Perigee altitude
484.203 km
Semi-major axis
6,863.14 km
Eccentricity
0.00012
Inclination
43.0022°
RAAN
181.4962°
Arg. of periapsis
284.4531°
True anomaly
75.63203°
Mean anomaly
75.6191°
Eccentric anomaly
75.62557°
Mean motion
3.81732 °/min
Orbital period
94.31 mins
BSTAR
0.000043389
Loading maneuver chart data...
Computing Atmospheric mass density...
Loading historical data...
Loading historical data...
Loading historical data...
Loading historical data...
Loading historical data...
Loading historical data...
Loading historical data...

Documentation

Showing up to 5 results
|